Year,Month,Day,Hour,Minute,Value (Times are PST for temperature in C)
2016,08,12,00,00,20.60
2016,08,12,00,01,20.60
2016,08,12,00,02,20.60
2016,08,12,00,03,20.60
2016,08,12,00,04,20.60
2016,08,12,00,05,20.60
2016,08,12,00,06,20.70
2016,08,12,00,07,20.70
2016,08,12,00,08,20.70
2016,08,12,00,09,20.70
2016,08,12,00,10,20.70
2016,08,12,00,11,20.70
2016,08,12,00,12,20.70
2016,08,12,00,13,20.70
2016,08,12,00,14,20.80
2016,08,12,00,15,20.70
2016,08,12,00,16,20.80
2016,08,12,00,17,20.80
2016,08,12,00,18,20.80
2016,08,12,00,19,20.80
2016,08,12,00,20,20.70
2016,08,12,00,21,20.70
2016,08,12,00,22,20.60
2016,08,12,00,23,20.60
2016,08,12,00,24,20.50
2016,08,12,00,25,20.40
2016,08,12,00,26,20.30
2016,08,12,00,27,20.20
2016,08,12,00,28,20.20
2016,08,12,00,29,20.10
2016,08,12,00,30,20.00
2016,08,12,00,31,20.00
2016,08,12,00,32,19.90
2016,08,12,00,33,19.90
2016,08,12,00,34,19.80
2016,08,12,00,35,19.80
2016,08,12,00,36,19.70
2016,08,12,00,37,19.70
2016,08,12,00,38,19.60
2016,08,12,00,39,19.50
2016,08,12,00,40,19.50
2016,08,12,00,41,19.40
2016,08,12,00,42,19.30
2016,08,12,00,43,19.30
2016,08,12,00,44,19.20
2016,08,12,00,45,19.20
2016,08,12,00,46,19.10
2016,08,12,00,47,19.10
2016,08,12,00,48,19.00
2016,08,12,00,49,18.90
2016,08,12,00,50,18.90
2016,08,12,00,51,18.80
2016,08,12,00,52,18.80
2016,08,12,00,53,18.70
2016,08,12,00,54,18.70
2016,08,12,00,55,18.60
2016,08,12,00,56,18.60
2016,08,12,00,57,18.60
2016,08,12,00,58,18.50
2016,08,12,00,59,18.50
2016,08,12,01,00,18.50
2016,08,12,01,01,18.40
2016,08,12,01,02,18.40
2016,08,12,01,03,18.40
2016,08,12,01,04,18.30
2016,08,12,01,05,18.30
2016,08,12,01,06,18.30
2016,08,12,01,07,18.20
2016,08,12,01,08,18.20
2016,08,12,01,09,18.20
2016,08,12,01,10,18.10
2016,08,12,01,11,18.10
2016,08,12,01,12,18.10
2016,08,12,01,13,18.00
2016,08,12,01,14,18.00
2016,08,12,01,15,17.90
2016,08,12,01,16,17.90
2016,08,12,01,17,17.90
2016,08,12,01,18,17.80
2016,08,12,01,19,17.80
2016,08,12,01,20,17.80
2016,08,12,01,21,17.70
2016,08,12,01,22,17.70
2016,08,12,01,23,17.70
2016,08,12,01,24,17.60
2016,08,12,01,25,17.60
2016,08,12,01,26,17.60
2016,08,12,01,27,17.60
2016,08,12,01,28,17.50
2016,08,12,01,29,17.50
2016,08,12,01,30,17.40
2016,08,12,01,31,17.40
2016,08,12,01,32,17.40
2016,08,12,01,33,17.30
2016,08,12,01,34,17.30
2016,08,12,01,35,17.30
2016,08,12,01,36,17.30
2016,08,12,01,37,17.20
2016,08,12,01,38,17.20
2016,08,12,01,39,17.20
2016,08,12,01,40,17.20
2016,08,12,01,41,17.10
2016,08,12,01,42,17.10
2016,08,12,01,43,17.10
2016,08,12,01,44,17.10
2016,08,12,01,45,17.10
2016,08,12,01,46,17.00
2016,08,12,01,47,17.00
2016,08,12,01,48,17.00
2016,08,12,01,49,17.00
2016,08,12,01,50,16.90
2016,08,12,01,51,16.90
2016,08,12,01,52,16.90
2016,08,12,01,53,16.90
2016,08,12,01,54,16.80
2016,08,12,01,55,16.80
2016,08,12,01,56,16.80
2016,08,12,01,57,16.80
2016,08,12,01,58,16.80
2016,08,12,01,59,16.80
2016,08,12,02,00,16.80
2016,08,12,02,01,16.70
2016,08,12,02,02,16.70
2016,08,12,02,03,16.70
2016,08,12,02,04,16.70
2016,08,12,02,05,16.70
2016,08,12,02,06,16.60
2016,08,12,02,07,16.60
2016,08,12,02,08,16.60
2016,08,12,02,09,16.60
2016,08,12,02,10,16.50
2016,08,12,02,11,16.50
2016,08,12,02,12,16.50
2016,08,12,02,13,16.40
2016,08,12,02,14,16.40
2016,08,12,02,15,16.40
2016,08,12,02,16,16.40
2016,08,12,02,17,16.40
2016,08,12,02,18,16.40
2016,08,12,02,19,16.30
2016,08,12,02,20,16.30
2016,08,12,02,21,16.30
2016,08,12,02,22,16.20
2016,08,12,02,23,16.20
2016,08,12,02,24,16.20
2016,08,12,02,25,16.20
2016,08,12,02,26,16.20
2016,08,12,02,27,16.20
2016,08,12,02,28,16.20
2016,08,12,02,29,16.20
2016,08,12,02,30,16.20
2016,08,12,02,31,16.10
2016,08,12,02,32,16.10
2016,08,12,02,33,16.10
2016,08,12,02,34,16.10
2016,08,12,02,35,16.10
2016,08,12,02,36,16.00
2016,08,12,02,37,16.00
2016,08,12,02,38,16.00
2016,08,12,02,39,16.00
2016,08,12,02,40,16.00
2016,08,12,02,41,16.00
2016,08,12,02,42,16.00
2016,08,12,02,43,16.00
2016,08,12,02,44,15.90
2016,08,12,02,45,15.90
2016,08,12,02,46,15.90
2016,08,12,02,47,15.90
2016,08,12,02,48,15.90
2016,08,12,02,49,15.90
2016,08,12,02,50,15.90
2016,08,12,02,51,15.90
2016,08,12,02,52,15.90
2016,08,12,02,53,15.90
2016,08,12,02,54,15.80
2016,08,12,02,55,15.80
2016,08,12,02,56,15.80
2016,08,12,02,57,15.80
2016,08,12,02,58,15.80
2016,08,12,02,59,15.80
2016,08,12,03,00,15.70
2016,08,12,03,01,15.70
2016,08,12,03,02,15.70
2016,08,12,03,03,15.70
2016,08,12,03,04,15.70
2016,08,12,03,05,15.70
2016,08,12,03,06,15.70
2016,08,12,03,07,15.70
2016,08,12,03,08,15.70
2016,08,12,03,09,15.60
2016,08,12,03,10,15.60
2016,08,12,03,11,15.60
2016,08,12,03,12,15.60
2016,08,12,03,13,15.60
2016,08,12,03,14,15.60
2016,08,12,03,15,15.50
2016,08,12,03,16,15.50
2016,08,12,03,17,15.50
2016,08,12,03,18,15.50
2016,08,12,03,19,15.40
2016,08,12,03,20,15.40
2016,08,12,03,21,15.40
2016,08,12,03,22,15.40
2016,08,12,03,23,15.40
2016,08,12,03,24,15.40
2016,08,12,03,25,15.30
2016,08,12,03,26,15.30
2016,08,12,03,27,15.30
2016,08,12,03,28,15.30
2016,08,12,03,29,15.30
2016,08,12,03,30,15.30
2016,08,12,03,31,15.30
2016,08,12,03,32,15.30
2016,08,12,03,33,15.30
2016,08,12,03,34,15.30
2016,08,12,03,35,15.30
2016,08,12,03,36,15.20
2016,08,12,03,37,15.20
2016,08,12,03,38,15.20
2016,08,12,03,39,15.20
2016,08,12,03,40,15.20
2016,08,12,03,41,15.20
2016,08,12,03,42,15.20
2016,08,12,03,43,15.20
2016,08,12,03,44,15.20
2016,08,12,03,45,15.10
2016,08,12,03,46,15.10
2016,08,12,03,47,15.10
2016,08,12,03,48,15.10
2016,08,12,03,49,15.10
2016,08,12,03,50,15.00
2016,08,12,03,51,15.00
2016,08,12,03,52,15.00
2016,08,12,03,53,15.00
2016,08,12,03,54,15.00
2016,08,12,03,55,15.00
2016,08,12,03,56,14.90
2016,08,12,03,57,14.90
2016,08,12,03,58,14.90
2016,08,12,03,59,14.90
2016,08,12,04,00,14.90
2016,08,12,04,01,14.90
2016,08,12,04,02,14.90
2016,08,12,04,03,14.90
2016,08,12,04,04,14.80
2016,08,12,04,05,14.80
2016,08,12,04,06,14.80
2016,08,12,04,07,14.80
2016,08,12,04,08,14.80
2016,08,12,04,09,14.80
2016,08,12,04,10,14.80
2016,08,12,04,11,14.80
2016,08,12,04,12,14.70
2016,08,12,04,13,14.70
2016,08,12,04,14,14.70
2016,08,12,04,15,14.70
2016,08,12,04,16,14.70
2016,08,12,04,17,14.70
2016,08,12,04,18,14.70
2016,08,12,04,19,14.70
2016,08,12,04,20,14.70
2016,08,12,04,21,14.70
2016,08,12,04,22,14.60
2016,08,12,04,23,14.60
2016,08,12,04,24,14.60
2016,08,12,04,25,14.60
2016,08,12,04,26,14.60
2016,08,12,04,27,14.60
2016,08,12,04,28,14.60
2016,08,12,04,29,14.50
2016,08,12,04,30,14.50
2016,08,12,04,31,14.50
2016,08,12,04,32,14.50
2016,08,12,04,33,14.50
2016,08,12,04,34,14.50
2016,08,12,04,35,14.50
2016,08,12,04,36,14.50
2016,08,12,04,37,14.50
2016,08,12,04,38,14.50
2016,08,12,04,39,14.40
2016,08,12,04,40,14.50
2016,08,12,04,41,14.40
2016,08,12,04,42,14.40
2016,08,12,04,43,14.40
2016,08,12,04,44,14.40
2016,08,12,04,45,14.40
2016,08,12,04,46,14.40
2016,08,12,04,47,14.40
2016,08,12,04,48,14.40
2016,08,12,04,49,14.40
2016,08,12,04,50,14.40
2016,08,12,04,51,14.40
2016,08,12,04,52,14.40
2016,08,12,04,53,14.40
2016,08,12,04,54,14.40
2016,08,12,04,55,14.40
2016,08,12,04,56,14.40
2016,08,12,04,57,14.40
2016,08,12,04,58,14.40
2016,08,12,04,59,14.30
2016,08,12,05,00,14.30
2016,08,12,05,01,14.30
2016,08,12,05,02,14.30
2016,08,12,05,03,14.30
2016,08,12,05,04,14.30
2016,08,12,05,05,14.30
2016,08,12,05,06,14.30
2016,08,12,05,07,14.30
2016,08,12,05,08,14.20
2016,08,12,05,09,14.20
2016,08,12,05,10,14.20
2016,08,12,05,11,14.20
2016,08,12,05,12,14.20
2016,08,12,05,13,14.20
2016,08,12,05,14,14.20
2016,08,12,05,15,14.20
2016,08,12,05,16,14.20
2016,08,12,05,17,14.20
2016,08,12,05,18,14.20
2016,08,12,05,19,14.20
2016,08,12,05,20,14.20
2016,08,12,05,21,14.20
2016,08,12,05,22,14.10
2016,08,12,05,23,14.10
2016,08,12,05,24,14.10
2016,08,12,05,25,14.10
2016,08,12,05,26,14.10
2016,08,12,05,27,14.10
2016,08,12,05,28,14.10
2016,08,12,05,29,14.10
2016,08,12,05,30,14.10
2016,08,12,05,31,14.10
2016,08,12,05,32,14.00
2016,08,12,05,33,14.00
2016,08,12,05,34,14.00
2016,08,12,05,35,14.00
2016,08,12,05,36,14.00
2016,08,12,05,37,13.90
2016,08,12,05,38,13.90
2016,08,12,05,39,13.90
2016,08,12,05,40,13.90
2016,08,12,05,41,13.90
2016,08,12,05,42,13.90
2016,08,12,05,43,13.90
2016,08,12,05,44,13.90
2016,08,12,05,45,13.80
2016,08,12,05,46,13.80
2016,08,12,05,47,13.80
2016,08,12,05,48,13.80
2016,08,12,05,49,13.80
2016,08,12,05,50,13.80
2016,08,12,05,51,13.80
2016,08,12,05,52,13.80
2016,08,12,05,53,13.80
2016,08,12,05,54,13.70
2016,08,12,05,55,13.70
2016,08,12,05,56,13.70
2016,08,12,05,57,13.70
2016,08,12,05,58,13.70
2016,08,12,05,59,13.70
2016,08,12,06,00,13.70
2016,08,12,06,01,13.70
2016,08,12,06,02,13.70
2016,08,12,06,03,13.70
2016,08,12,06,04,13.70
2016,08,12,06,05,13.70
2016,08,12,06,06,13.70
2016,08,12,06,07,13.60
2016,08,12,06,08,13.60
2016,08,12,06,09,13.60
2016,08,12,06,10,13.60
2016,08,12,06,11,13.60
2016,08,12,06,12,13.60
2016,08,12,06,13,13.60
2016,08,12,06,14,13.50
2016,08,12,06,15,13.50
2016,08,12,06,16,13.50
2016,08,12,06,17,13.50
2016,08,12,06,18,13.50
2016,08,12,06,19,13.50
2016,08,12,06,20,13.50
2016,08,12,06,21,13.50
2016,08,12,06,22,13.50
2016,08,12,06,23,13.40
2016,08,12,06,24,13.40
2016,08,12,06,25,13.40
2016,08,12,06,26,13.40
2016,08,12,06,27,13.40
2016,08,12,06,28,13.40
2016,08,12,06,29,13.40
2016,08,12,06,30,13.40
2016,08,12,06,31,13.40
2016,08,12,06,32,13.40
2016,08,12,06,33,13.40
2016,08,12,06,34,13.40
2016,08,12,06,35,13.40
2016,08,12,06,36,13.40
2016,08,12,06,37,13.40
2016,08,12,06,38,13.40
2016,08,12,06,39,13.40
2016,08,12,06,40,13.40
2016,08,12,06,41,13.40
2016,08,12,06,42,13.30
2016,08,12,06,43,13.30
2016,08,12,06,44,13.30
2016,08,12,06,45,13.30
2016,08,12,06,46,13.30
2016,08,12,06,47,13.30
2016,08,12,06,48,13.30
2016,08,12,06,49,13.30
2016,08,12,06,50,13.30
2016,08,12,06,51,13.30
2016,08,12,06,52,13.30
2016,08,12,06,53,13.30
2016,08,12,06,54,13.30
2016,08,12,06,55,13.30
2016,08,12,06,56,13.30
2016,08,12,06,57,13.30
2016,08,12,06,58,13.30
2016,08,12,06,59,13.30
2016,08,12,07,00,13.30
2016,08,12,07,01,13.30
2016,08,12,07,02,13.30
2016,08,12,07,03,13.30
2016,08,12,07,04,13.30
2016,08,12,07,05,13.30
2016,08,12,07,06,13.30
2016,08,12,07,07,13.30
2016,08,12,07,08,13.30
2016,08,12,07,09,13.30
2016,08,12,07,10,13.30
2016,08,12,07,11,13.30
2016,08,12,07,12,13.30
2016,08,12,07,13,13.30
2016,08,12,07,14,13.30
2016,08,12,07,15,13.30
2016,08,12,07,16,13.30
2016,08,12,07,17,13.20
2016,08,12,07,18,13.20
2016,08,12,07,19,13.20
2016,08,12,07,20,13.20
2016,08,12,07,21,13.20
2016,08,12,07,22,13.20
2016,08,12,07,23,13.30
2016,08,12,07,24,13.30
2016,08,12,07,25,13.30
2016,08,12,07,26,13.30
2016,08,12,07,27,13.30
2016,08,12,07,28,13.30
2016,08,12,07,29,13.30
2016,08,12,07,30,13.30
2016,08,12,07,31,13.30
2016,08,12,07,32,13.30
2016,08,12,07,33,13.30
2016,08,12,07,34,13.30
2016,08,12,07,35,13.30
2016,08,12,07,36,13.30
2016,08,12,07,37,13.40
2016,08,12,07,38,13.40
2016,08,12,07,39,13.40
2016,08,12,07,40,13.50
2016,08,12,07,41,13.50
2016,08,12,07,42,13.60
2016,08,12,07,43,13.60
2016,08,12,07,44,13.70
2016,08,12,07,45,13.80
2016,08,12,07,46,13.80
2016,08,12,07,47,13.90
2016,08,12,07,48,14.00
2016,08,12,07,49,14.10
2016,08,12,07,50,14.20
2016,08,12,07,51,14.30
2016,08,12,07,52,14.40
2016,08,12,07,53,14.50
2016,08,12,07,54,14.60
2016,08,12,07,55,14.70
2016,08,12,07,56,14.80
2016,08,12,07,57,14.90
2016,08,12,07,58,15.00
2016,08,12,07,59,15.00
2016,08,12,08,00,15.10
2016,08,12,08,01,15.20
2016,08,12,08,02,15.20
2016,08,12,08,03,15.30
2016,08,12,08,04,15.30
2016,08,12,08,05,15.40
2016,08,12,08,06,15.40
2016,08,12,08,07,15.50
2016,08,12,08,08,15.50
2016,08,12,08,09,15.60
2016,08,12,08,10,15.60
2016,08,12,08,11,15.70
2016,08,12,08,12,15.70
2016,08,12,08,13,15.80
2016,08,12,08,14,15.80
2016,08,12,08,15,15.90
2016,08,12,08,16,15.90
2016,08,12,08,17,15.90
2016,08,12,08,18,16.00
2016,08,12,08,19,16.00
2016,08,12,08,20,16.00
2016,08,12,08,21,16.10
2016,08,12,08,22,16.20
2016,08,12,08,23,16.20
2016,08,12,08,24,16.20
2016,08,12,08,25,16.30
2016,08,12,08,26,16.30
2016,08,12,08,27,16.30
2016,08,12,08,28,16.30
2016,08,12,08,29,16.40
2016,08,12,08,30,16.40
2016,08,12,08,31,16.50
2016,08,12,08,32,16.50
2016,08,12,08,33,16.60
2016,08,12,08,34,16.60
2016,08,12,08,35,16.70
2016,08,12,08,36,16.70
2016,08,12,08,37,16.80
2016,08,12,08,38,16.80
2016,08,12,08,39,16.80
2016,08,12,08,40,16.90
2016,08,12,08,41,16.90
2016,08,12,08,42,17.00
2016,08,12,08,43,17.00
2016,08,12,08,44,17.00
2016,08,12,08,45,17.10
2016,08,12,08,46,17.10
2016,08,12,08,47,17.20
2016,08,12,08,48,17.20
2016,08,12,08,49,17.30
2016,08,12,08,50,17.40
2016,08,12,08,51,17.40
2016,08,12,08,52,17.50
2016,08,12,08,53,17.50
2016,08,12,08,54,17.60
2016,08,12,08,55,17.60
2016,08,12,08,56,17.70
2016,08,12,08,57,17.80
2016,08,12,08,58,17.80
2016,08,12,08,59,17.90
2016,08,12,09,00,18.00
2016,08,12,09,01,18.00
2016,08,12,09,02,18.10
2016,08,12,09,03,18.20
2016,08,12,09,04,18.20
2016,08,12,09,05,18.30
2016,08,12,09,06,18.30
2016,08,12,09,07,18.30
2016,08,12,09,08,18.40
2016,08,12,09,09,18.40
2016,08,12,09,10,18.40
2016,08,12,09,11,18.40
2016,08,12,09,12,18.40
2016,08,12,09,13,18.40
2016,08,12,09,14,18.40
2016,08,12,09,15,18.50
2016,08,12,09,16,18.50
2016,08,12,09,17,18.60
2016,08,12,09,18,18.60
2016,08,12,09,19,18.60
2016,08,12,09,20,18.70
2016,08,12,09,21,18.70
2016,08,12,09,22,18.80
2016,08,12,09,23,18.80
2016,08,12,09,24,18.80
2016,08,12,09,25,18.90
2016,08,12,09,26,18.90
2016,08,12,09,27,19.00
2016,08,12,09,28,19.00
2016,08,12,09,29,19.10
2016,08,12,09,30,19.10
2016,08,12,09,31,19.10
2016,08,12,09,32,19.10
2016,08,12,09,33,19.20
2016,08,12,09,34,19.20
2016,08,12,09,35,19.30
2016,08,12,09,36,19.40
2016,08,12,09,37,19.40
2016,08,12,09,38,19.50
2016,08,12,09,39,19.60
2016,08,12,09,40,19.70
2016,08,12,09,41,19.70
2016,08,12,09,42,19.70
2016,08,12,09,43,19.80
2016,08,12,09,44,19.80
2016,08,12,09,45,19.90
2016,08,12,09,46,19.90
2016,08,12,09,47,20.00
2016,08,12,09,48,20.10
2016,08,12,09,49,20.20
2016,08,12,09,50,20.30
2016,08,12,09,51,20.40
2016,08,12,09,52,20.50
2016,08,12,09,53,20.60
2016,08,12,09,54,20.70
2016,08,12,09,55,20.70
2016,08,12,09,56,20.70
2016,08,12,09,57,20.80
2016,08,12,09,58,20.80
2016,08,12,09,59,20.90
2016,08,12,10,00,21.00
2016,08,12,10,01,21.00
2016,08,12,10,02,21.10
2016,08,12,10,03,21.20
2016,08,12,10,04,21.20
2016,08,12,10,05,21.20
2016,08,12,10,06,21.20
2016,08,12,10,07,21.20
2016,08,12,10,08,21.10
2016,08,12,10,09,21.10
2016,08,12,10,10,21.00
2016,08,12,10,11,20.90
2016,08,12,10,12,20.90
2016,08,12,10,13,20.90
2016,08,12,10,14,20.90
2016,08,12,10,15,20.90
2016,08,12,10,16,20.90
2016,08,12,10,17,21.00
2016,08,12,10,18,21.10
2016,08,12,10,19,21.20
2016,08,12,10,20,21.30
2016,08,12,10,21,21.30
2016,08,12,10,22,21.30
2016,08,12,10,23,21.40
2016,08,12,10,24,21.40
2016,08,12,10,25,21.40
2016,08,12,10,26,21.40
2016,08,12,10,27,21.40
2016,08,12,10,28,21.40
2016,08,12,10,29,21.40
2016,08,12,10,30,21.40
2016,08,12,10,31,21.40
2016,08,12,10,32,21.30
2016,08,12,10,33,21.30
2016,08,12,10,34,21.40
2016,08,12,10,35,21.50
2016,08,12,10,36,21.60
2016,08,12,10,37,21.70
2016,08,12,10,38,21.80
2016,08,12,10,39,21.90
2016,08,12,10,40,22.10
2016,08,12,10,41,22.20
2016,08,12,10,42,22.40
2016,08,12,10,43,22.50
2016,08,12,10,44,22.70
2016,08,12,10,45,22.80
2016,08,12,10,46,22.90
2016,08,12,10,47,23.00
2016,08,12,10,48,23.10
2016,08,12,10,49,23.10
2016,08,12,10,50,23.10
2016,08,12,10,51,23.20
2016,08,12,10,52,23.20
2016,08,12,10,53,23.20
2016,08,12,10,54,23.20
2016,08,12,10,55,23.20
2016,08,12,10,56,23.30
2016,08,12,10,57,23.30
2016,08,12,10,58,23.30
2016,08,12,10,59,23.30
2016,08,12,11,00,23.20
2016,08,12,11,01,23.10
2016,08,12,11,02,23.10
2016,08,12,11,03,23.10
2016,08,12,11,04,23.10
2016,08,12,11,05,23.10
2016,08,12,11,06,23.10
2016,08,12,11,07,23.10
2016,08,12,11,08,23.10
2016,08,12,11,09,23.10
2016,08,12,11,10,23.20
2016,08,12,11,11,23.20
2016,08,12,11,12,23.20
2016,08,12,11,13,23.20
2016,08,12,11,14,23.20
2016,08,12,11,15,23.20
2016,08,12,11,16,23.30
2016,08,12,11,17,23.30
2016,08,12,11,18,23.40
2016,08,12,11,19,23.50
2016,08,12,11,20,23.60
2016,08,12,11,21,23.60
2016,08,12,11,22,23.70
2016,08,12,11,23,23.80
2016,08,12,11,24,24.00
2016,08,12,11,25,24.10
2016,08,12,11,26,24.00
2016,08,12,11,27,24.00
2016,08,12,11,28,24.00
2016,08,12,11,29,23.90
2016,08,12,11,30,23.90
2016,08,12,11,31,23.90
2016,08,12,11,32,23.90
2016,08,12,11,33,23.90
2016,08,12,11,34,23.90
2016,08,12,11,35,23.90
2016,08,12,11,36,23.90
2016,08,12,11,37,23.90
2016,08,12,11,38,23.90
2016,08,12,11,39,23.90
2016,08,12,11,40,23.90
2016,08,12,11,41,24.00
2016,08,12,11,42,24.10
2016,08,12,11,43,24.10
2016,08,12,11,44,24.20
2016,08,12,11,45,24.30
2016,08,12,11,46,24.40
2016,08,12,11,47,24.50
2016,08,12,11,48,24.50
2016,08,12,11,49,24.60
2016,08,12,11,50,24.70
2016,08,12,11,51,24.70
2016,08,12,11,52,24.80
2016,08,12,11,53,24.80
2016,08,12,11,54,24.90
2016,08,12,11,55,25.00
2016,08,12,11,56,25.10
2016,08,12,11,57,25.20
2016,08,12,11,58,25.30
2016,08,12,11,59,25.40
2016,08,12,12,00,25.40
2016,08,12,12,01,25.50
2016,08,12,12,02,25.50
2016,08,12,12,03,25.50
2016,08,12,12,04,25.60
2016,08,12,12,05,25.60
2016,08,12,12,06,25.60
2016,08,12,12,07,25.70
2016,08,12,12,08,25.70
2016,08,12,12,09,25.60
2016,08,12,12,10,25.60
2016,08,12,12,11,25.60
2016,08,12,12,12,25.60
2016,08,12,12,13,25.50
2016,08,12,12,14,25.50
2016,08,12,12,15,25.50
2016,08,12,12,16,25.60
2016,08,12,12,17,25.60
2016,08,12,12,18,25.70
2016,08,12,12,19,25.80
2016,08,12,12,20,25.90
2016,08,12,12,21,26.00
2016,08,12,12,22,26.00
2016,08,12,12,23,26.10
2016,08,12,12,24,26.20
2016,08,12,12,25,26.30
2016,08,12,12,26,26.30
2016,08,12,12,27,26.30
2016,08,12,12,28,26.30
2016,08,12,12,29,26.40
2016,08,12,12,30,26.50
2016,08,12,12,31,26.60
2016,08,12,12,32,26.60
2016,08,12,12,33,26.60
2016,08,12,12,34,26.50
2016,08,12,12,35,26.50
2016,08,12,12,36,26.50
2016,08,12,12,37,26.50
2016,08,12,12,38,26.60
2016,08,12,12,39,26.60
2016,08,12,12,40,26.70
2016,08,12,12,41,26.70
2016,08,12,12,42,26.70
2016,08,12,12,43,26.80
2016,08,12,12,44,26.90
2016,08,12,12,45,27.10
2016,08,12,12,46,27.20
2016,08,12,12,47,27.30
2016,08,12,12,48,27.40
2016,08,12,12,49,27.50
2016,08,12,12,50,27.60
2016,08,12,12,51,27.70
2016,08,12,12,52,27.80
2016,08,12,12,53,27.90
2016,08,12,12,54,28.00
2016,08,12,12,55,28.00
2016,08,12,12,56,28.00
2016,08,12,12,57,28.00
2016,08,12,12,58,27.90
2016,08,12,12,59,28.00
2016,08,12,13,00,27.90
2016,08,12,13,01,27.90
2016,08,12,13,02,27.90
2016,08,12,13,03,27.90
2016,08,12,13,04,27.90
2016,08,12,13,05,27.90
2016,08,12,13,06,27.90
2016,08,12,13,07,27.90
2016,08,12,13,08,28.00
2016,08,12,13,09,28.10
2016,08,12,13,10,28.20
2016,08,12,13,11,28.30
2016,08,12,13,12,28.40
2016,08,12,13,13,28.50
2016,08,12,13,14,28.60
2016,08,12,13,15,28.70
2016,08,12,13,16,28.70
2016,08,12,13,17,28.80
2016,08,12,13,18,28.90
2016,08,12,13,19,28.90
2016,08,12,13,20,29.00
2016,08,12,13,21,29.10
2016,08,12,13,22,29.20
2016,08,12,13,23,29.30
2016,08,12,13,24,29.40
2016,08,12,13,25,29.40
2016,08,12,13,26,29.40
2016,08,12,13,27,29.30
2016,08,12,13,28,29.20
2016,08,12,13,29,29.20
2016,08,12,13,30,29.20
2016,08,12,13,31,29.20
2016,08,12,13,32,29.10
2016,08,12,13,33,29.20
2016,08,12,13,34,29.20
2016,08,12,13,35,29.20
2016,08,12,13,36,29.20
2016,08,12,13,37,29.10
2016,08,12,13,38,29.10
2016,08,12,13,39,29.10
2016,08,12,13,40,29.10
2016,08,12,13,41,29.20
2016,08,12,13,42,29.30
2016,08,12,13,43,29.40
2016,08,12,13,44,29.50
2016,08,12,13,45,29.60
2016,08,12,13,46,29.70
2016,08,12,13,47,29.70
2016,08,12,13,48,29.80
2016,08,12,13,49,29.80
2016,08,12,13,50,29.70
2016,08,12,13,51,29.70
2016,08,12,13,52,29.60
2016,08,12,13,53,29.70
2016,08,12,13,54,29.70
2016,08,12,13,55,29.80
2016,08,12,13,56,30.00
2016,08,12,13,57,30.10
2016,08,12,13,58,30.30
2016,08,12,13,59,30.40
2016,08,12,14,00,30.50
2016,08,12,14,01,30.60
2016,08,12,14,02,30.60
2016,08,12,14,03,30.60
2016,08,12,14,04,30.50
2016,08,12,14,05,30.50
2016,08,12,14,06,30.60
2016,08,12,14,07,30.70
2016,08,12,14,08,30.80
2016,08,12,14,09,30.80
2016,08,12,14,10,30.80
2016,08,12,14,11,30.90
2016,08,12,14,12,30.90
2016,08,12,14,13,30.90
2016,08,12,14,14,30.90
2016,08,12,14,15,30.90
2016,08,12,14,16,30.80
2016,08,12,14,17,30.80
2016,08,12,14,18,30.70
2016,08,12,14,19,30.70
2016,08,12,14,20,30.70
2016,08,12,14,21,30.70
2016,08,12,14,22,30.70
2016,08,12,14,23,30.70
2016,08,12,14,24,30.70
2016,08,12,14,25,30.70
2016,08,12,14,26,30.70
2016,08,12,14,27,30.70
2016,08,12,14,28,30.70
2016,08,12,14,29,30.80
2016,08,12,14,30,30.90
2016,08,12,14,31,30.90
2016,08,12,14,32,31.00
2016,08,12,14,33,31.10
2016,08,12,14,34,31.20
2016,08,12,14,35,31.30
2016,08,12,14,36,31.40
2016,08,12,14,37,31.50
2016,08,12,14,38,31.60
2016,08,12,14,39,31.60
2016,08,12,14,40,31.70
2016,08,12,14,41,31.80
2016,08,12,14,42,31.90
2016,08,12,14,43,32.00
2016,08,12,14,44,32.00
2016,08,12,14,45,32.00
2016,08,12,14,46,32.00
2016,08,12,14,47,31.90
2016,08,12,14,48,31.80
2016,08,12,14,49,31.70
2016,08,12,14,50,31.60
2016,08,12,14,51,31.60
2016,08,12,14,52,31.50
2016,08,12,14,53,31.40
2016,08,12,14,54,31.40
2016,08,12,14,55,31.30
2016,08,12,14,56,31.30
2016,08,12,14,57,31.30
2016,08,12,14,58,31.30
2016,08,12,14,59,31.30
2016,08,12,15,00,31.30
2016,08,12,15,01,31.40
2016,08,12,15,02,31.40
2016,08,12,15,03,31.30
2016,08,12,15,04,31.30
2016,08,12,15,05,31.30
2016,08,12,15,06,31.40
2016,08,12,15,07,31.40
2016,08,12,15,08,31.40
2016,08,12,15,09,31.30
2016,08,12,15,10,31.30
2016,08,12,15,11,31.30
2016,08,12,15,12,31.30
2016,08,12,15,13,31.20
2016,08,12,15,14,31.20
2016,08,12,15,15,31.20
2016,08,12,15,16,31.20
2016,08,12,15,17,31.20
2016,08,12,15,18,31.30
2016,08,12,15,19,31.30
2016,08,12,15,20,31.30
2016,08,12,15,21,31.30
2016,08,12,15,22,31.40
2016,08,12,15,23,31.40
2016,08,12,15,24,31.40
2016,08,12,15,25,31.40
2016,08,12,15,26,31.40
2016,08,12,15,27,31.40
2016,08,12,15,28,31.40
2016,08,12,15,29,31.40
2016,08,12,15,30,31.40
2016,08,12,15,31,31.40
2016,08,12,15,32,31.40
2016,08,12,15,33,31.40
2016,08,12,15,34,31.40
2016,08,12,15,35,31.40
2016,08,12,15,36,31.40
2016,08,12,15,37,31.40
2016,08,12,15,38,31.40
2016,08,12,15,39,31.40
2016,08,12,15,40,31.40
2016,08,12,15,41,31.40
2016,08,12,15,42,31.40
2016,08,12,15,43,31.40
2016,08,12,15,44,31.50
2016,08,12,15,45,31.50
2016,08,12,15,46,31.50
2016,08,12,15,47,31.50
2016,08,12,15,48,31.50
2016,08,12,15,49,31.50
2016,08,12,15,50,31.60
2016,08,12,15,51,31.60
2016,08,12,15,52,31.60
2016,08,12,15,53,31.50
2016,08,12,15,54,31.50
2016,08,12,15,55,31.50
2016,08,12,15,56,31.50
2016,08,12,15,57,31.40
2016,08,12,15,58,31.40
2016,08,12,15,59,31.40
2016,08,12,16,00,31.40
2016,08,12,16,01,31.40
2016,08,12,16,02,31.30
2016,08,12,16,03,31.30
2016,08,12,16,04,31.40
2016,08,12,16,05,31.40
2016,08,12,16,06,31.40
2016,08,12,16,07,31.40
2016,08,12,16,08,31.40
2016,08,12,16,09,31.40
2016,08,12,16,10,31.40
2016,08,12,16,11,31.40
2016,08,12,16,12,31.40
2016,08,12,16,13,31.40
2016,08,12,16,14,31.40
2016,08,12,16,15,31.50
2016,08,12,16,16,31.40
2016,08,12,16,17,31.40
2016,08,12,16,18,31.40
2016,08,12,16,19,31.40
2016,08,12,16,20,31.30
2016,08,12,16,21,31.30
2016,08,12,16,22,31.30
2016,08,12,16,23,31.30
2016,08,12,16,24,31.30
2016,08,12,16,25,31.30
2016,08,12,16,26,31.30
2016,08,12,16,27,31.30
2016,08,12,16,28,31.30
2016,08,12,16,29,31.30
2016,08,12,16,30,31.30
2016,08,12,16,31,31.30
2016,08,12,16,32,31.20
2016,08,12,16,33,31.20
2016,08,12,16,34,31.10
2016,08,12,16,35,31.10
2016,08,12,16,36,31.10
2016,08,12,16,37,31.10
2016,08,12,16,38,31.00
2016,08,12,16,39,31.00
2016,08,12,16,40,31.00
2016,08,12,16,41,31.00
2016,08,12,16,42,30.90
2016,08,12,16,43,30.90
2016,08,12,16,44,31.00
2016,08,12,16,45,31.00
2016,08,12,16,46,31.00
2016,08,12,16,47,31.00
2016,08,12,16,48,31.10
2016,08,12,16,49,31.10
2016,08,12,16,50,31.10
2016,08,12,16,51,31.10
2016,08,12,16,52,31.10
2016,08,12,16,53,31.10
2016,08,12,16,54,31.10
2016,08,12,16,55,31.10
2016,08,12,16,56,31.10
2016,08,12,16,57,31.10
2016,08,12,16,58,31.10
2016,08,12,16,59,31.00
2016,08,12,17,00,31.00
2016,08,12,17,01,31.10
2016,08,12,17,02,31.10
2016,08,12,17,03,31.00
2016,08,12,17,04,30.90
2016,08,12,17,05,30.90
2016,08,12,17,06,30.80
2016,08,12,17,07,30.80
2016,08,12,17,08,30.80
2016,08,12,17,09,30.80
2016,08,12,17,10,30.80
2016,08,12,17,11,30.70
2016,08,12,17,12,30.70
2016,08,12,17,13,30.70
2016,08,12,17,14,30.70
2016,08,12,17,15,30.60
2016,08,12,17,16,30.70
2016,08,12,17,17,30.70
2016,08,12,17,18,30.70
2016,08,12,17,19,30.70